TIME,DELAY(SENSOR),PRES,T(CTD),SAL,OXYGEN,RAWTEMP,T(OPTODE),TCPHASE,FLUOR,BETA(BETA700),BETA(BETA412),BETA(BETA440),CDOM,C(CSC),ED(ED411.90),ED(ED443.80),ED(ED489.40),ED(ED554.70),LU(LU412.20),LU(LU443.80),LU(LU489.40),LU(LU555.00),COMP,TILTX,TILTX(TILTY),CHECK
1349882855,5806,497.5899963378906000,17.0783996582031250,36.3821983337402340,223.0673980712890600,200.0688018798828000,17.0795898437500000,32.5147209167480500,49,103,63,82,60,2582,2147481755,2147766546,2147558528,2147794779,2147316772,2147473801,2147711195,2148249188,2515,7,13,38503
1349882982,5804,486.7300109863281000,17.1786003112792970,36.4020996093750000,225.9454040527343800,196.6251068115234400,17.1843395233154300,32.3194999694824200,50,101,62,82,59,2581,2147483593,2147765394,2147561920,2147794139,2147310601,2147475986,2147714349,2148243593,2229,6,13,41075
1349883111,5800,475.8900146484375000,17.3094997406005860,36.4267997741699200,227.2734985351562500,192.5462951660156200,17.3084201812744140,32.1963005065918000,50,102,63,81,60,2584,2147480548,2147768640,2147561883,2147795547,2147314733,2147475584,2147711597,2148248027,2139,7,13,41914
1349883250,5802,464.5000000000000000,17.4370002746582030,36.4514007568359400,228.9131011962890600,188.3883972167968800,17.4349193572998050,32.0570411682128900,50,102,63,81,59,2583,2147486976,2147767186,2147560941,2147792484,2147314560,2147475949,2147710308,2148243922,1822,6,12,50409
1349883391,5804,453.3900146484375000,17.5391998291015620,36.4704017639160160,230.5569000244140600,185.0762023925781200,17.5357093811035160,31.9300498962402340,50,101,62,81,58,2588,2147483958,2147767122,2147557915,2147794358,2147318354,2147475520,2147711853,2148242230,1772,7,13,58970
1349883530,5802,442.5700073242187500,17.6352996826171880,36.4878005981445300,231.6405944824218800,181.9409027099609400,17.6311206817626950,31.8340396881103500,50,102,62,81,60,2593,2147486683,2147765705,2147556361,2147793380,2147316973,2147474733,2147710793,2148241801,849,7,12,57522
1349883690,5804,429.3500061035156000,17.6956005096435550,36.5003013610839840,233.0838012695312500,179.9969024658203000,17.6902904510498050,31.7369194030761720,50,102,62,82,59,2595,2147487835,2147766482,2147555675,2147792850,2147315894,2147480667,2147713654,2148241709,3571,7,13,30755
1349883806,5804,417.5199890136719000,17.7597999572753900,36.5126991271972660,234.2012939453125000,177.8226928710937500,17.7564697265625000,31.6533908843994140,50,101,62,83,59,2596,2147485504,2147765312,2147555657,2147793426,2147316032,2147473910,2147710153,2148241024,3428,7,12,5824
1349883909,5805,406.4800109863281000,17.8066005706787100,36.5214004516601560,235.0084075927734400,176.1419067382812500,17.8076305389404300,31.5916404724121100,50,101,63,82,58,2600,2147485924,2147762825,2147556662,2147793280,2147314139,2147473600,2147706377,2148240502,2505,7,13,16517
1349884027,5802,394.8699951171875000,17.8619995117187500,36.5284004211425800,235.4532928466797000,174.5072021484375000,17.8574008941650400,31.5478401184082030,50,102,61,82,59,2602,2147488018,2147766912,2147555300,2147790226,2147318464,2147476196,2147708580,2148242870,2278,7,12,11228
1349884154,5804,383.9599914550781000,17.9295997619628900,36.5396995544433600,234.8883972167968800,172.2816009521484400,17.9251594543457030,31.5451698303222660,50,102,63,81,57,2608,2147486500,2147764489,2147558125,2147791936,2147312137,2147473234,2147709074,2148239881,2117,7,13,17273
1349884271,5799,373.7399902343750000,17.9951000213623050,36.5513000488281250,235.9886016845703000,170.1300964355468800,17.9906692504882800,31.4632606506347660,49,104,63,82,59,2609,2147489270,2147759323,2147557037,2147791725,2147316105,2147478637,2147708416,2148245092,2965,7,13,57066
1349884398,5804,362.6300048828125000,18.0200996398925780,36.5503005981445300,234.4893035888672000,169.2610015869140600,18.0171298980712900,31.5236396789550780,50,103,62,82,59,2613,2147488502,2147762770,2147554788,2147789650,2147313856,2147475227,2147709860,2148245723,3006,7,13,19833
1349884525,5804,351.5199890136719000,18.0569000244140620,36.5551986694335940,234.2100067138672000,168.0211944580078000,18.0548896789550780,31.5205192565917970,50,101,62,82,59,2618,2147490331,2147762477,2147555145,2147790683,2147315300,2147476196,2147707017,2148240905,3248,7,13,65201
1349884654,5805,340.2399902343750000,18.1105995178222660,36.5621986389160160,233.5480041503906200,166.3202972412109400,18.1066894531250000,31.5296497344970700,50,103,62,82,59,2619,2147486848,2147764992,2147555785,2147790610,2147316854,2147481179,2147711186,2148239369,3025,7,12,4581
1349884781,5803,329.4800109863281000,18.1306991577148440,36.5629997253418000,233.2631072998047000,165.5294952392578000,18.1307792663574220,31.5328006744384770,49,102,62,82,59,2624,2147492516,2147766290,2147556754,2147788562,2147311762,2147474779,2147710345,2148240018,1972,7,13,26128
1349884910,5804,318.6300048828125000,18.1853008270263670,36.5698013305664060,232.9949035644531200,163.8274993896484400,18.1826190948486330,31.5228900909423830,50,101,62,81,58,2630,2147489490,2147763437,2147560548,2147789220,2147314084,2147477120,2147708955,2148240969,2021,7,13,56859
1349885049,5805,307.1099853515625000,18.2143001556396500,36.5728988647460940,231.9730072021484400,162.7313995361328000,18.2160091400146500,31.5576705932617200,50,102,63,82,59,2639,2147488530,2147762102,2147562523,2147793929,2147317769,2147478793,2147707968,2148240969,1896,7,12,14610
1349885176,5802,296.8599853515625000,18.2975006103515620,36.5848007202148440,232.2185974121093800,160.2429962158203000,18.2918205261230470,31.5122699737548830,49,101,63,83,58,2644,2147490038,2147763657,2147563885,2147791844,2147314176,2147477394,2147710720,2148239670,2560,7,12,35115
1349885317,5804,285.8599853515625000,18.3614006042480470,36.5905990600585940,232.1685943603515600,157.9730072021484400,18.3609790802001950,31.4842491149902340,50,103,62,82,59,2645,2147490614,2147763730,2147567021,2147790070,2147312457,2147480576,2147713161,2148240905,2768,7,12,32075
1349885468,5803,274.9700012207031000,18.4409008026123050,36.5992012023925800,231.3079071044922000,155.4615020751953000,18.4375190734863280,31.4925098419189450,49,104,62,82,58,2646,2147491721,2147765449,2147570505,2147792082,2147313408,2147478848,2147714249,2148241316,2732,7,13,19252
1349885612,5805,263.1099853515625000,18.5153007507324220,36.6015014648437500,228.6230926513672000,152.9911041259765600,18.5128097534179700,31.5915603637695300,50,103,63,83,60,2648,2147491346,2147767862,2147574034,2147789193,2147307126,2147479094,2147716534,2148240146,1373,7,12,6793
1349885727,5802,252.4400024414062500,18.6089992523193360,36.6105995178222660,227.5744934082031200,149.9700012207031200,18.6049003601074220,31.6028099060058600,50,103,63,82,60,2651,2147492352,2147769472,2147580763,2147791817,2147310445,2147482834,2147720896,2148244105,1064,7,13,28790
1349885856,5805,240.7899932861328000,18.7143993377685550,36.6041984558105500,225.3910980224609400,146.4309997558593800,18.7128105163574220,31.6646308898925780,50,103,62,84,59,2651,2147491501,2147773211,2147594825,2147791817,2147302336,2147485577,2147729133,2148240310,533,7,12,18824
1349885971,5803,230.6600036621093800,18.8817996978759770,36.6113014221191400,226.1309967041015600,140.9006042480468800,18.8814792633056640,31.5533790588378900,50,104,62,82,59,2652,2147489901,2147779739,2147611712,2147790619,2147316050,2147488649,2147740086,2148242752,3412,7,13,53703
1349886098,5805,219.8999938964843800,19.0284004211425780,36.6109008789062500,229.4911956787109400,136.0372009277343800,19.0298805236816400,31.3217906951904300,50,103,63,82,59,2657,2147495040,2147788928,2147635675,2147789778,2147306624,2147497453,2147754560,2148240064,2900,7,12,57055
1349886239,5804,208.8899993896484400,19.1753005981445300,36.6026992797851560,234.8966979980468800,131.2758941650390600,19.1752109527587900,30.9971504211425780,50,102,62,84,59,2664,2147494272,2147804178,2147666422,2147789394,2147314139,2147505280,2147771894,2148242240,3202,7,12,13796
1349886390,5802,197.8999938964843800,19.2672004699707030,36.6011009216308600,240.1699981689453000,128.3083038330078000,19.2658195495605470,30.7102794647216800,50,101,61,82,58,2668,2147496054,2147805193,2147664320,2147786724,2147316608,2147505773,2147767762,2148242834,3420,7,12,21350
1349886445,5803,194.0200042724609400,19.2952995300292970,36.5973014831543000,241.8045959472656200,127.5246963500976600,19.2897491455078120,30.6247291564941400,50,103,62,84,57,2671,2147498404,2147797513,2147648777,2147786624,2147310016,2147500178,2147758729,2148242541,3354,7,12,28002
1349886521,5805,188.9700012207031200,19.3059005737304700,36.5894012451171900,244.0126953125000000,127.0509033203125000,19.3042201995849600,30.5174198150634770,50,103,63,83,57,2676,2147497234,2147800521,2147653312,2147786505,2147308370,2147503021,2147761728,2148241792,3160,7,12,35646
1349886588,5802,184.9799957275390600,19.3278007507324220,36.5896987915039060,244.9356994628906200,126.3248977661132800,19.3263893127441400,30.4660797119140620,51,105,63,83,57,2682,2147499904,2147818102,2147704091,2147789394,2147313883,2147518262,2147788077,2148240393,3166,7,12,11015
1349886655,5802,180.9199981689453000,19.3528995513916000,36.5854988098144500,245.9904022216797000,125.6796035766601600,19.3460998535156250,30.4099006652832030,51,103,62,84,58,2684,2147503177,2147839862,2147750957,2147787666,2147310189,2147532251,2147817590,2148242486,3148,7,12,62090
1349886722,5803,176.8200073242187500,19.3826007843017580,36.5802993774414060,246.4898071289062500,124.4933013916015600,19.3823394775390620,30.3720092773437500,52,107,63,83,58,2686,2147504137,2147854390,2147773366,2147788379,2147315136,2147542244,2147828306,2148244608,3025,7,12,53711
1349886777,5802,173.3600006103515600,19.4125995635986330,36.5816001892089840,246.4931945800781200,123.5136032104492200,19.4122600555419920,30.3591804504394530,53,106,62,84,57,2690,2147513819,2147857408,2147780059,2147787456,2147322157,2147542665,2147830656,2148246646,2904,7,12,63131
1349886855,5805,168.6900024414062500,19.4610004425048830,36.5862998962402340,246.5511016845703000,122.0621032714843800,19.4566097259521500,30.3377399444580080,53,107,61,84,57,2690,2147512768,2147872246,2147805357,2147786112,2147314093,2147552539,2147845467,2148244461,3110,7,12,44701
1349886922,5801,165.1100006103515600,19.4962005615234380,36.5886001586914060,246.4338989257812500,120.9016036987304700,19.4920692443847660,30.3278598785400400,54,106,62,83,57,2689,2147513563,2147894701,2147849718,2147786386,2147320969,2147564470,2147864786,2148248338,2994,7,12,34812
1349886989,5807,161.4900054931640600,19.5231990814209000,36.5914001464843750,246.4976959228515600,119.9985961914062500,19.5196609497070300,30.3132495880126950,55,107,64,84,58,2693,2147523291,2147910326,2147888365,2147791350,2147323556,2147570048,2147883465,2148247140,2690,7,12,54039
1349887068,5804,157.0500030517578000,19.5804996490478500,36.5959014892578100,246.5135955810547000,118.2201995849609400,19.5740108489990230,30.2895202636718750,58,111,63,84,57,2706,2147526720,2147933787,2147929307,2147789211,2147321216,2147586761,2147902253,2148251611,2124,7,12,62297
1349887137,5804,153.2299957275390600,19.6060009002685550,36.5979003906250000,246.8231048583984400,117.3602981567382800,19.6002998352050780,30.2644100189209000,57,109,63,84,58,2703,2147541202,2147956964,2147973229,2147789522,2147328777,2147599826,2147929252,2148253046,1606,7,12,41765
1349887204,5803,149.5299987792968800,19.6301002502441400,36.5985984802246100,246.9582061767578000,116.4953994750976600,19.6267395019531250,30.2471408843994140,59,114,63,83,57,2701,2147548114,2147991085,2148032045,2147787456,2147332315,2147614482,2147961545,2148253833,1530,7,12,28889
1349887283,5802,145.2899932861328000,19.6844005584716800,36.6010017395019500,246.9732971191406200,114.7958984375000000,19.6786899566650400,30.2243309020996100,62,114,63,86,58,2701,2147559625,2148017664,2148083318,2147789604,2147329801,2147630802,2147980132,2148254729,1432,7,12,40349
1349887362,5804,141.2700042724609400,19.7299003601074220,36.6080017089843750,246.9440002441406200,113.2904968261718800,19.7247200012207030,30.2060794830322270,62,113,63,85,57,2704,2147562642,2148024585,2148079204,2147788242,2147340644,2147628068,2147975762,2148254299,1339,7,12,14523
1349887443,5804,137.3999938964843800,19.7446002960205080,36.6072006225585940,247.1262969970703000,112.7520980834961000,19.7411899566650400,30.1910591125488280,64,113,62,85,57,2710,2147566326,2148022656,2148061814,2147788717,2147336758,2147626395,2147967286,2148255936,1349,7,12,52610
1349887522,5804,133.8399963378906200,19.7905006408691400,36.6118011474609400,247.0355072021484400,111.3076019287109400,19.7853603363037100,30.1764106750488280,64,115,63,83,58,2714,2147577865,2148030445,2148067346,2147785700,2147342006,2147627876,2147966473,2148254290,1240,7,12,8983
1349887625,5804,129.8899993896484400,19.9097003936767580,36.6216011047363300,247.2071075439453000,107.6841964721679700,19.8962001800537100,30.1217994689941400,67,112,63,84,58,2718,2147584137,2148032969,2148058130,2147789458,2147350829,2147625755,2147961170,2148252745,890,7,12,57298
1349887772,5802,124.9300003051757800,19.9734992980957030,36.6258010864257800,247.9712066650390600,104.7687988281250000,19.9854106903076170,30.0503807067871100,69,118,63,85,59,2722,2147594194,2148034358,2148048658,2147789604,2147356772,2147621403,2147944493,2148251638,238,7,13,12997
1349887875,5807,120.6500015258789000,20.0678997039794920,36.6268997192382800,249.3516998291015600,102.1614990234375000,20.0652198791503900,29.9558391571044920,73,119,63,85,57,2719,2147609472,2148054875,2148069302,2147789174,2147353216,2147629147,2147945938,2148255990,11,7,12,11182
1349887966,5803,116.9400024414062500,20.1506996154785160,36.6346015930175800,250.4226989746093800,99.6742706298828100,20.1413707733154300,29.8767395019531250,76,119,63,83,58,2724,2147636480,2148109869,2148155401,2147791012,2147365056,2147651227,2147983332,2148255616,3321,7,12,54445
1349888081,5804,112.0899963378906200,20.3120002746582030,36.6442985534668000,249.6755065917968800,93.9577178955078100,20.3164691925048830,29.8361206054687500,81,119,62,84,57,2718,2147718418,2148277677,2148417700,2147792585,2147398857,2147718034,2148086610,2148264850,2983,7,12,28182
1349888148,5803,108.7200012207031200,20.4894008636474600,36.6538009643554700,248.3202972412109400,89.4570312500000000,20.4544105529785160,29.8381099700927730,86,120,63,85,58,2715,2147808676,2148457444,2148698112,2147797824,2147431076,2147790153,2148206098,2148272109,2963,7,12,6182
1349888239,5804,104.7600021362304700,20.6028003692626950,36.6552009582519500,251.9114990234375000,84.8459014892578100,20.5958099365234380,29.6221199035644530,87,118,63,85,59,2720,2147959853,2148726893,2149078400,2147803602,2147478930,2147892370,2148340800,2148288630,2659,8,12,7036
1349888342,5804,101.0199966430664000,20.8505001068115230,36.6650009155273440,255.3708038330078000,76.7889709472656200,20.8430595397949220,29.3715305328369140,90,117,62,84,59,2728,2148093504,2148929590,2149326107,2147809828,2147521901,2147953892,2148422491,2148294473,2626,7,12,60327
1349888399,5804,99.1399993896484400,21.0799007415771500,36.6744995117187500,257.6365966796875000,71.0131072998046900,21.0204601287841800,29.2029991149902340,88,118,64,86,58,2737,2148141284,2148985243,2149369664,2147808009,2147531730,2147968292,2148433755,2148296009,2174,7,12,38127
1349888466,5803,96.9800033569336000,21.2143993377685550,36.6783981323242200,259.9634094238281000,65.2051773071289000,21.1989898681640620,29.0326499938964840,83,115,63,85,58,2744,2148199926,2149063094,2149442587,2147811922,2147555428,2148001472,2148460434,2148297709,2282,7,13,52446
1349888521,5802,95.2099990844726600,21.2931995391845700,36.6800994873046900,262.4258117675781000,62.5848197937011700,21.2795791625976560,28.8984603881835940,83,117,63,85,57,2751,2148271113,2149152557,2149533632,2147813248,2147579291,2148040128,2148498742,2148300763,2977,7,12,13883
1349888588,5801,93.0100021362304700,21.3390998840332030,36.6735992431640600,263.6516113281250000,60.9012985229492200,21.3313694000244140,28.8272895812988280,79,117,62,85,58,2756,2148384411,2149305188,2149693888,2147817728,2147624768,2148101074,2148571849,2148312713,2966,7,12,32852
1349888643,5806,90.8499984741211000,21.4046993255615230,36.6651000976562500,264.6158142089844000,58.5264015197753900,21.4044494628906250,28.7582893371582030,76,120,62,86,56,2758,2148506532,2149463241,2149863003,2147824859,2147665645,2148172864,2148648868,2148320100,2673,7,12,23613
1349888722,5804,86.9100036621093800,21.5242004394531250,36.6632995605468750,266.1482849121094000,54.9449691772460940,21.5147094726562500,28.6518707275390620,73,119,64,86,57,2759,2148789997,2149829705,2150261348,2147844754,2147773147,2148327826,2148818889,2148336036,2127,7,12,63035
1349888777,5805,83.4700012207031200,21.6343994140625000,36.6605987548828100,266.7615051269531000,51.3212509155273440,21.6263294219970700,28.5822391510009770,73,119,63,87,56,2755,2149072676,2150173504,2150618688,2147860105,2147884635,2148478070,2148982838,2148358006,1801,7,13,63615
1349888832,5804,80.0899963378906200,21.7765998840332030,36.6553001403808600,267.0542907714844000,47.0582695007324200,21.7577095031738280,28.5175495147705080,73,120,63,87,58,2752,2149391817,2150545865,2150997686,2147878436,2148009600,2148649737,2149167817,2148372525,1329,7,12,26400
1349888887,5804,77.0800018310546900,21.8428001403808600,36.6542015075683600,267.9096069335937500,45.2278289794921900,21.8141498565673830,28.4608707427978500,71,119,64,86,55,2760,2149652589,2150843730,2151282578,2147896374,2148124269,2148795026,2149311670,2148391954,1360,8,12,35620
1349888942,5803,74.6699981689453100,21.9431991577148440,36.6531982421875000,267.6542968750000000,41.9986801147460940,21.9137496948242200,28.4309501647949220,72,122,62,86,56,2758,2149828891,2151000146,2151394578,2147906267,2148202395,2148880795,2149375506,2148399734,1645,8,12,43595
1349888997,5805,72.9199981689453100,22.0370006561279300,36.6524009704589840,267.5190124511719000,39.2397308349609400,21.9988899230957030,28.4023494720459000,73,120,63,86,56,2753,2150177170,2151402084,2151814601,2147928932,2148350290,2149069814,2149570523,2148425316,1820,7,12,46641
1349889079,5805,71.8000030517578100,22.1124992370605470,36.6484985351562500,267.9815063476562500,35.7573394775390600,22.1064090728759770,28.3410491943359380,74,122,62,88,56,2753,2150814006,2152170706,2152620187,2147959661,2148613750,2149428772,2149949019,2148465581,1788,7,12,16965
1349889422,5805,69.1100006103515600,22.5545997619628900,36.6049995422363300,266.3696899414062500,21.6727790832519530,22.5418891906738280,28.2318401336669920,71,123,62,88,55,2775,2153821165,2155801307,2156512027,2148152832,2149921462,2151160749,2151793673,2148666084,972,7,12,64559
1349889501,5805,67.3499984741211000,22.7217006683349600,36.5955009460449200,267.3635864257812500,16.4794292449951170,22.7027091979980470,28.1285190582275400,71,124,63,87,55,2765,2154878153,2156893860,2157502098,2148209636,2150415469,2151729051,2152309586,2148725037,496,7,12,10003
1349889688,5805,63.9000015258789060,23.1098003387451170,36.5704002380371100,267.0874938964844000,7.9887809753417970,22.9659690856933600,28.0356101989746100,69,124,63,88,55,2759,2157920301,2160028708,2160444525,2148433033,2151889042,2153396086,2153832960,2148913554,751,8,12,25034
1349889743,5803,61.1399993896484400,23.1777000427246100,36.5738983154296900,266.2330932617187500,2.9760990142822266,23.1215801239013670,28.0081195831298830,69,122,62,88,54,2749,2158892205,2160955949,2161297316,2148536566,2152445778,2153970422,2154336923,2148982902,1094,8,12,57546
1349889798,5803,58.8100013732910160,23.2978992462158200,36.5685997009277340,265.9744873046875000,-0.3506093919277191,23.2249298095703120,27.9778709411621100,67,127,64,88,55,2756,2159735579,2161774272,2162071497,2148638555,2152931446,2154471387,2154772342,2149048384,1282,8,12,1128
1349889853,5804,57.3699989318847660,23.3537006378173830,36.5577011108398440,266.0398864746094000,-2.7860910892486572,23.3006305694580080,27.9454994201660160,67,126,64,88,54,2755,2160513161,2162557677,2162832365,2148716516,2153364653,2154942646,2155199158,2149105846,1272,8,12,710
1349890064,5805,55.2000007629394500,23.7796001434326170,36.5504989624023440,265.8374023437500000,-16.6675701141357420,23.7327899932861330,27.7846107482910160,67,125,65,88,53,2759,2163253824,2165062400,2164921252,2148913728,2155120429,2156651602,2156559360,2149271369,1893,7,12,63538
1349890219,5801,52.0900001525878900,23.9629001617431640,36.5435981750488300,265.0645141601562500,-22.1761207580566400,23.9046096801757800,27.7483291625976560,67,127,64,90,53,2751,2168253750,2170179373,2169909056,2149412708,2158026998,2159778569,2159402166,2149639862,2889,8,12,21586
1349890327,5804,50.9399986267089840,24.2257995605468750,36.5320014953613300,263.6724853515625000,-30.0385208129882800,24.1501903533935550,27.7080192565917970,65,128,62,88,54,2764,2174557412,2176701065,2176236662,2150033152,2161527588,2163543323,2162823451,2150086345,3404,8,12,38042
1349890448,5804,48.8499984741210940,24.5415992736816400,36.5349006652832000,262.3866882324219000,-38.8104515075683600,24.4246501922607420,27.6530799865722660,66,147,63,88,53,2749,2188452187,2191808850,2191647021,2151568731,2169725659,2172569993,2171144905,2151179035,707,8,12,28070
1349890722,5806,46.8499984741210940,25.2362003326416000,36.5451011657714840,260.8416137695312500,-62.4620780944824200,25.1673202514648440,27.4289207458496100,66,125,63,88,55,2741,2197568576,2199655168,2197779172,2152429193,2177141824,2179208475,2176008576,2151808521,47,7,12,63111
1349890827,5804,44.8100013732910160,25.4421005249023440,36.5303993225097660,260.8840942382812500,-69.3599929809570300,25.3846702575683600,27.3440303802490230,65,127,64,90,54,2740,2213682514,2217515008,2216431076,2154602075,2187102144,2190223469,2186423131,2153278646,249,7,12,28055
1349890968,5802,42.8899993896484400,26.0088005065917970,36.5190010070800800,257.3344116210937500,-86.7561111450195300,25.9344406127929700,27.2771091461181640,64,125,63,88,53,2729,2203070436,2204713261,2202571181,2153723584,2181538148,2183088045,2179072603,2152414089,3298,7,12,42489
1349891278,5803,40.7000007629394500,26.4918994903564450,36.5203018188476560,251.9674987792968800,-100.8495025634765600,26.3815994262695300,27.3262290954589840,65,123,64,88,52,2716,2190209069,2190775890,2188586112,2152530386,2175316699,2175701092,2171858532,2151497728,1828,8,11,41644
1349891623,5803,38.9000015258789060,26.8234004974365230,36.3410987854003900,245.9830932617187500,-113.9113006591796900,26.7974891662597660,27.4181709289550780,62,124,63,88,52,2700,2189648585,2190062701,2187939382,2152651264,2177145993,2176946386,2172371273,2151559158,3275,7,12,29630
1349892160,5804,36.7200012207031250,27.0450000762939450,36.2966995239257800,240.2218933105468800,-121.8508987426757800,27.0510101318359380,27.5683403015136720,61,121,63,88,50,2699,2208688502,2209702134,2207814674,2156561627,2195877750,2194261430,2186106377,2153690614,1702,7,12,54243
1349892229,5803,34.5600013732910160,27.0848007202148440,36.2487983703613300,239.0001068115234400,-123.0184020996093800,27.0883407592773440,27.6072998046875000,61,120,63,87,52,2684,2211384777,2212321179,2210711195,2157916946,2200936146,2198311972,2188838162,2154250011,1374,8,12,7103
1349892286,5807,32.7599983215332000,27.0767002105712900,36.2318000793457000,237.9978942871093800,-122.8442993164062500,27.0827693939209000,27.6532306671142580,60,118,62,88,52,2674,2215674633,2216692032,2215416932,2159648100,2206502518,2203166281,2192519177,2154991588,1317,7,12,52548
1349892355,5804,30.8199996948242200,27.0760993957519530,36.2322006225585940,237.4942016601562500,-122.8750991821289000,27.0837593078613280,27.6748504638671880,59,119,63,86,51,2666,2218970349,2219864768,2218835657,2161354395,2211771474,2207641298,2195760649,2155695414,1131,8,12,48084